^^
Station Historical Data
 
Daily Summary for January 22, 2019 Units:  Metric    English   Both
« Previous Day
Next Day »
Daily Weekly Monthly Yearly Custom
  Current: High: Low: Average:
Temperature: -0.6 °C -17.8 °C -0.6 °C 0.4 °C
Dew Point: -1.9 °C -17.8 °C -1.9 °C -0.8 °C
Humidity: 91% Humidity% 89% 91%
Wind Speed: 3.2km/h 0km/h 0km/h 4.7km/h
Wind Gust: 11.3km/h 0km/h - -
WindNorth - - SSE
Pressure: 1012.1 hPa 0 hPa 1012.1 hPa -
Precipitation: 0 mm      
Historical Graphs
 
 
Tabular Data for January 22, 2019
Time Temperature Dew Point Pressure Wind Wind Speed Wind Gust Humidity Rainfall Rate (Hourly) solar Conditions
-17.8 °C -17.8 °C 0 hPa Calm     Humidity% 0 mm SolarRadiationWatts/m^2 W/m2 Conditions
00:00 1.6 °C 0.1 °C 1020.2 hPa NNE 8 km/h 19.3 km/h 90% 0 mm 0.00 W/m2 CLR
00:10 1.6 °C 0.1 °C 1020.2 hPa NNE 8 km/h 12.9 km/h 90% 0 mm 0.00 W/m2 CLR
00:20 1.6 °C 0.1 °C 1020.2 hPa North 4.8 km/h 14.5 km/h 90% 0 mm 0.00 W/m2 CLR
00:30 1.6 °C 0.1 °C 1020.2 hPa North 9.7 km/h 12.9 km/h 90% 0 mm 0.00 W/m2 CLR
00:40 1.6 °C 0.1 °C 1019.9 hPa North 4.8 km/h 11.3 km/h 90% 0 mm 0.00 W/m2 CLR
00:50 1.6 °C 0.1 °C 1019.9 hPa North 8 km/h 11.3 km/h 90% 0 mm 0.00 W/m2 CLR
01:00 1.6 °C 0 °C 1019.9 hPa North 4.8 km/h 11.3 km/h 89% 0 mm 0.00 W/m2 CLR
01:10 1.6 °C 0.1 °C 1019.9 hPa NNE 9.7 km/h 14.5 km/h 90% 0 mm 0.00 W/m2 CLR
01:20 1.6 °C 0 °C 1019.9 hPa North 9.7 km/h 16.1 km/h 89% 0 mm 0.00 W/m2 CLR
01:30 1.6 °C 0 °C 1019.9 hPa NNE 9.7 km/h 17.7 km/h 89% 0 mm 0.00 W/m2 CLR
01:40 1.6 °C 0 °C 1019.9 hPa North 9.7 km/h 22.5 km/h 89% 0 mm 0.00 W/m2 CLR
01:50 1.6 °C 0 °C 1019.5 hPa North 8 km/h 12.9 km/h 89% 0 mm 0.00 W/m2 CLR
02:00 1.6 °C 0 °C 1019.5 hPa North 4.8 km/h 12.9 km/h 89% 0 mm 0.00 W/m2 CLR
02:10 1.6 °C 0 °C 1019.5 hPa NNE 4.8 km/h 12.9 km/h 89% 0 mm 0.00 W/m2 CLR
02:20 1.6 °C 0 °C 1019.5 hPa NNE 8 km/h 19.3 km/h 89% 0 mm 0.00 W/m2 CLR
02:30 1.6 °C 0 °C 1019.2 hPa North 8 km/h 12.9 km/h 89% 0 mm 0.00 W/m2 CLR
02:40 1.6 °C 0 °C 1018.8 hPa North 8 km/h 12.9 km/h 89% 0 mm 0.00 W/m2 CLR
02:50 1.6 °C 0 °C 1018.8 hPa North 3.2 km/h 11.3 km/h 89% 0 mm 0.00 W/m2 CLR
03:00 1.6 °C 0.1 °C 1018.8 hPa North 3.2 km/h 9.7 km/h 90% 0 mm 0.00 W/m2 CLR
03:10 1.6 °C 0.1 °C 1018.5 hPa North 8 km/h 11.3 km/h 90% 0 mm 0.00 W/m2 CLR
03:20 1.6 °C 0.1 °C 1018.5 hPa North 4.8 km/h 11.3 km/h 90% 0 mm 0.00 W/m2 CLR
03:30 1.5 °C 0.1 °C 1018.5 hPa North 4.8 km/h 12.9 km/h 90% 0 mm 0.00 W/m2 CLR
03:40 1.5 °C 0.1 °C 1018.5 hPa North 8 km/h 17.7 km/h 90% 0 mm 0.00 W/m2 CLR
03:50 1.5 °C 0.1 °C 1018.2 hPa North 8 km/h 16.1 km/h 90% 0 mm 0.00 W/m2 CLR
04:00 1.4 °C 0 °C 1018.2 hPa NNE 3.2 km/h 11.3 km/h 90% 0 mm 0.00 W/m2 CLR
04:10 1.4 °C -0.1 °C 1018.2 hPa North 3.2 km/h 11.3 km/h 90% 0 mm 0.00 W/m2 CLR
04:20 1.4 °C -0.1 °C 1018.2 hPa North 3.2 km/h 12.9 km/h 90% 0 mm 0.00 W/m2 CLR
04:30 1.4 °C -0.1 °C 1018.2 hPa North 8 km/h 12.9 km/h 90% 0 mm 0.00 W/m2 CLR
04:40 1.4 °C -0.1 °C 1018.2 hPa North 8 km/h 17.7 km/h 90% 0 mm 0.00 W/m2 CLR
04:50 1.3 °C -0.1 °C 1017.8 hPa NNE 8 km/h 12.9 km/h 90% 0 mm 0.00 W/m2 CLR
05:00 1.3 °C -0.2 °C 1017.8 hPa North 8 km/h 11.3 km/h 90% 0 mm 0.00 W/m2 CLR
05:10 1.3 °C -0.2 °C 1017.8 hPa NNE 8 km/h 16.1 km/h 90% 0 mm 0.00 W/m2 CLR
05:20 1.2 °C -0.1 °C 1017.8 hPa NNE 4.8 km/h 11.3 km/h 91% 0 mm 0.00 W/m2 CLR
05:30 1.1 °C -0.2 °C 1017.8 hPa North 4.8 km/h 11.3 km/h 91% 0 mm 0.00 W/m2 CLR
05:40 1.1 °C 0.1 °C 1017.8 hPa NNE 3.2 km/h 14.5 km/h 93% 0 mm 0.00 W/m2 CLR
05:50 1 °C 0 °C 1017.8 hPa North 4.8 km/h 11.3 km/h 93% 0 mm 0.00 W/m2 CLR
06:00 0.9 °C -0.1 °C 1017.8 hPa North 1.6 km/h 12.9 km/h 93% 0 mm 0.00 W/m2 CLR
06:10 0.9 °C 0.1 °C 1017.8 hPa North 1.6 km/h 12.9 km/h 94% 0 mm 0.00 W/m2 CLR
06:20 0.8 °C -0.1 °C 1017.5 hPa North 3.2 km/h 9.7 km/h 94% 0 mm 0.00 W/m2 CLR
06:30 0.8 °C -0.1 °C 1017.5 hPa NNE 1.6 km/h 9.7 km/h 94% 0 mm 0.00 W/m2 OVC
06:40 0.8 °C -0.1 °C 1017.5 hPa North 1.6 km/h 8 km/h 94% 0 mm 0.00 W/m2 OVC
06:50 0.8 °C -0.1 °C 1017.5 hPa Calm   8 km/h 94% 0 mm 0.00 W/m2 OVC
07:00 0.7 °C -0.2 °C 1017.2 hPa NNE 1.6 km/h 8 km/h 94% 0 mm 1.00 W/m2 OVC
07:10 0.7 °C -0.2 °C 1017.5 hPa North 3.2 km/h 8 km/h 94% 0 mm 2.00 W/m2 SCT
07:20 0.6 °C -0.3 °C 1017.2 hPa North 4.8 km/h 14.5 km/h 94% 0 mm 3.00 W/m2 OVC
07:30 0.5 °C -0.3 °C 1017.2 hPa North 4.8 km/h 14.5 km/h 94% 0 mm 6.00 W/m2 OVC
07:40 0.5 °C -0.3 °C 1017.2 hPa North 3.2 km/h 9.7 km/h 94% 0 mm 11.00 W/m2 OVC
07:50 0.4 °C -0.4 °C 1017.5 hPa North 3.2 km/h 9.7 km/h 94% 0 mm 18.00 W/m2 OVC
08:00 0.4 °C -0.4 °C 1017.5 hPa North 1.6 km/h 11.3 km/h 94% 0 mm 24.00 W/m2 OVC
08:10 0.3 °C -0.6 °C 1017.5 hPa North 4.8 km/h 12.9 km/h 94% 0 mm 26.00 W/m2 OVC
08:20 0.3 °C -0.6 °C 1017.5 hPa NNW 4.8 km/h 14.5 km/h 94% 0 mm 25.00 W/m2 OVC
08:30 0.2 °C -0.7 °C 1017.5 hPa North 3.2 km/h 9.7 km/h 94% 0 mm 27.00 W/m2 OVC
08:40 0.2 °C -0.7 °C 1017.5 hPa North 4.8 km/h 12.9 km/h 94% 0 mm 32.00 W/m2 OVC
08:50 0.2 °C -0.7 °C 1017.5 hPa North 4.8 km/h 9.7 km/h 94% 0 mm 31.00 W/m2 OVC
09:00 0.2 °C -0.7 °C 1017.5 hPa North 3.2 km/h 8 km/h 94% 0 mm 31.00 W/m2 OVC
09:10 0.2 °C -0.8 °C 1017.5 hPa North 3.2 km/h 9.7 km/h 93% 0 mm 36.00 W/m2 OVC
09:20 0.2 °C -0.8 °C 1017.2 hPa North 3.2 km/h 8 km/h 93% 0 mm 43.00 W/m2 OVC
09:30 0.1 °C -0.9 °C 1017.2 hPa North 3.2 km/h 11.3 km/h 93% 0 mm 43.00 W/m2 OVC
09:40 0.1 °C -0.9 °C 1017.2 hPa North 1.6 km/h 8 km/h 93% 0 mm 59.00 W/m2 OVC
09:50 0.1 °C -0.9 °C 1017.2 hPa NNW 4.8 km/h 9.7 km/h 93% 0 mm 71.00 W/m2 OVC
10:00 0.1 °C -0.9 °C 1017.2 hPa North 1.6 km/h 9.7 km/h 93% 0 mm 74.00 W/m2 OVC
10:10 0.1 °C -0.9 °C 1017.2 hPa NNE 3.2 km/h 11.3 km/h 93% 0 mm 86.00 W/m2 OVC
10:20 0.2 °C -0.8 °C 1017.2 hPa North 3.2 km/h 9.7 km/h 93% 0 mm 86.00 W/m2 OVC
10:30 0.2 °C -0.8 °C 1017.2 hPa North 4.8 km/h 12.9 km/h 93% 0 mm 69.00 W/m2 OVC
10:40 0.2 °C -1.1 °C 1016.8 hPa NNW 3.2 km/h 12.9 km/h 91% 0 mm 67.00 W/m2 OVC
10:50 0.2 °C -1.1 °C 1016.8 hPa NNW 4.8 km/h 11.3 km/h 91% 0 mm 62.00 W/m2 OVC
11:00 0.2 °C -1.1 °C 1016.8 hPa North 1.6 km/h 11.3 km/h 91% 0 mm 78.00 W/m2 OVC
11:10 0.2 °C -1.1 °C 1016.5 hPa North 4.8 km/h 12.9 km/h 91% 0 mm 75.00 W/m2 OVC
11:20 0.2 °C -1.1 °C 1016.5 hPa North 4.8 km/h 12.9 km/h 91% 0 mm 74.00 W/m2 OVC
11:30 0.1 °C -1.2 °C 1016.1 hPa North 4.8 km/h 16.1 km/h 91% 0 mm 83.00 W/m2 OVC
11:40 0 °C -1.3 °C 1016.1 hPa North 4.8 km/h 11.3 km/h 91% 0 mm 50.00 W/m2 OVC
11:50 0.1 °C -1.3 °C 1015.8 hPa North 3.2 km/h 12.9 km/h 91% 0 mm 67.00 W/m2 OVC
12:00 0 °C -1.3 °C 1015.8 hPa NNW 1.6 km/h 4.8 km/h 91% 0 mm 57.00 W/m2 OVC
12:10 0 °C -1.3 °C 1015.8 hPa North 4.8 km/h 11.3 km/h 91% 0 mm 62.00 W/m2 OVC
12:20 0 °C -1.3 °C 1015.5 hPa North 3.2 km/h 11.3 km/h 91% 0 mm 72.00 W/m2 OVC
12:30 0 °C -1.3 °C 1015.1 hPa NNW 1.6 km/h 11.3 km/h 91% 0 mm 67.00 W/m2 OVC
12:40 0.1 °C -1.3 °C 1015.1 hPa NNW 1.6 km/h 6.4 km/h 91% 0 mm 59.00 W/m2 OVC
12:50 0 °C -1.4 °C 1014.8 hPa North 3.2 km/h 12.9 km/h 90% 0 mm 53.00 W/m2 OVC
13:00 -0.1 °C -1.4 °C 1014.8 hPa North 4.8 km/h 9.7 km/h 91% 0 mm 51.00 W/m2 OVC
13:10 -0.1 °C -1.4 °C 1014.4 hPa North 4.8 km/h 12.9 km/h 91% 0 mm 56.00 W/m2 OVC
13:20 -0.2 °C -1.5 °C 1014.4 hPa North 4.8 km/h 12.9 km/h 91% 0 mm 52.00 W/m2 OVC
13:30 -0.2 °C -1.2 °C 1014.1 hPa North 1.6 km/h 9.7 km/h 93% 0 mm 58.00 W/m2 OVC
13:40 -0.3 °C -1.3 °C 1014.1 hPa NW 3.2 km/h 4.8 km/h 93% 0 mm 64.00 W/m2 OVC
13:50 -0.3 °C -1.3 °C 1014.1 hPa North 1.6 km/h 4.8 km/h 93% 0 mm 45.00 W/m2 OVC
14:00 -0.3 °C -1.3 °C 1013.8 hPa North 4.8 km/h 11.3 km/h 93% 0 mm 58.00 W/m2 OVC
14:10 -0.3 °C -1.3 °C 1013.8 hPa North 3.2 km/h 11.3 km/h 93% 0 mm 47.00 W/m2 OVC
14:20 -0.3 °C -1.3 °C 1013.4 hPa North 3.2 km/h 12.9 km/h 93% 0 mm 47.00 W/m2 OVC
14:30 -0.3 °C -1.3 °C 1013.1 hPa NNW 3.2 km/h 9.7 km/h 93% 0 mm 77.00 W/m2 BKN
14:40 -0.2 °C -1.5 °C 1013.1 hPa NNW 3.2 km/h 8 km/h 91% 0 mm 75.00 W/m2 BKN
14:50 -0.1 °C -1.4 °C 1013.1 hPa NNE 4.8 km/h 9.7 km/h 91% 0 mm 57.00 W/m2 BKN
15:00 -0.1 °C -1.4 °C 1013.1 hPa NNE 3.2 km/h 9.7 km/h 91% 0 mm 32.00 W/m2 OVC
15:10 -0.1 °C -1.6 °C 1012.8 hPa North 4.8 km/h 14.5 km/h 90% 0 mm 37.00 W/m2 OVC
15:20 -0.1 °C -1.6 °C 1012.8 hPa North 11.3 km/h 16.1 km/h 90% 0 mm 29.00 W/m2 OVC
15:30 -0.2 °C -1.7 °C 1012.8 hPa North 9.7 km/h 16.1 km/h 90% 0 mm 19.00 W/m2 OVC
15:40 -0.2 °C -1.7 °C 1012.4 hPa North 3.2 km/h 17.7 km/h 90% 0 mm 16.00 W/m2 OVC
15:50 -0.3 °C -1.7 °C 1012.4 hPa North 8 km/h 19.3 km/h 90% 0 mm 11.00 W/m2 OVC
16:00 -0.4 °C -1.8 °C 1012.4 hPa North 3.2 km/h 19.3 km/h 90% 0 mm 6.00 W/m2 OVC
16:10 -0.4 °C -1.8 °C 1012.4 hPa North 3.2 km/h 9.7 km/h 90% 0 mm 3.00 W/m2 CLR
16:20 -0.5 °C -1.9 °C 1012.1 hPa North 4.8 km/h 9.7 km/h 90% 0 mm 2.00 W/m2 OVC
16:30 -0.6 °C -1.9 °C 1012.1 hPa North 3.2 km/h 11.3 km/h 91% 0 mm 0.00 W/m2 OVC
Knjazevac Weather
Compliments of Weather Underground - 2 mb